Flag for Norway Weather past 2 weeks in Finse, Norway

Now
47 °F

Cool.


Feels Like: 44 °F
Forecast: 40 / 52 °F
Wind: 7 mph from East

Location: Finsevatn

Current Time: Jul 29, 2015 at 2:22:31 PM

Latest Report: Jul 29, 2015 at 1:00 PM


Visibility: N/A

Pressure: 29.44 "Hg (25.39 "Hg at 1221m altitude)

Humidity: 82%

Dew point: 42 °F

Location of FinseLocation

Historic Weather in Finse — Graph

°F

Finse temperature yesterday

Maximum temperature yesterday: 53 °F (at 3:00 PM)
Minimum temperature yesterday: 32 °F (at 4:00 AM)
Average temperature yesterday: 43 °F

Past Weeks' High & Low Weather Summary

 TemperatureHumidityPressure
High55 °F (Jul 17, 3:00 PM)97% (Jul 15, 1:00 AM)30.18 "Hg (Jul 15, 1:00 AM)
Low29 °F (Jul 17, 4:00 AM)44% (Jul 17, 4:00 PM)29.44 "Hg (Jul 26, 8:00 PM)
Average41 °F84%29.73 "Hg
* Reported Jul 14 12:00 Noon — Jul 29 12:00 Noon, Finse, Weather by CustomWeather, © 2015

Note: Actual official high and low records may vary slightly from our data, if they occured in-between our weather recording intervals... More about our weather records

Advertising

Finse weather history for previous 24 hours

 ConditionsComfort  
Time TempWeatherWind HumidityBarometerVisibility
12:00 PM
Wed, Jul 29
46 °FCool.8 mph90%29.44 "HgN/A
11:00 AM46 °FCool.7 mph87%29.44 "HgN/A
10:00 AM46 °FCool.8 mph85%29.44 "HgN/A
9:00 AM46 °FCool.2 mph84%29.44 "HgN/A
8:00 AM45 °FCool.2 mph86%29.44 "HgN/A
7:00 AM42 °FQuite cool.1 mph92%29.50 "HgN/A
6:00 AM42 °FQuite cool.1 mph94%29.50 "HgN/A
4:00 AM41 °FQuite cool.1 mph94%29.54 "HgN/A
3:00 AM41 °FQuite cool.1 mph94%29.55 "HgN/A
2:00 AM40 °FChilly.1 mph94%29.57 "HgN/A
1:00 AM40 °FQuite cool.1 mph94%29.57 "HgN/A
12:00 AM41 °FQuite cool.1 mph93%29.57 "HgN/A
10:00 PM
Tue, Jul 28
44 °FQuite cool.2 mph92%29.54 "HgN/A
9:00 PM44 °FQuite cool.1 mph86%29.54 "HgN/A
8:00 PM44 °FQuite cool.1 mph87%29.54 "HgN/A
7:00 PM46 °FCool.3 mph85%29.50 "HgN/A
6:00 PM47 °FCool.5 mph83%29.50 "HgN/A
5:00 PM51 °FCool.3 mph64%29.44 "HgN/A
4:00 PM51 °FCool.6 mph61%29.44 "HgN/A
3:00 PM53 °FCool.5 mph60%29.44 "HgN/A
2:00 PM50 °FCool.5 mph67%29.47 "HgN/A
Weather by CustomWeather, © 2015

See weather overviewHow to use our weather pages